Temp
-23 -23 -22 -22 -22 -22 -21 -20 -19 -18 -17 -17 -17 -17 -17 -17 -17 -17 -17 -17 -17 -17 -16 -17 -16 -16 -16 -16 -16 -16 -17 -16 -17 -16 -16 -16 -15 -14 -14 -13 -13 -14 -15 -14 -15 -15 -14 -13 -14 -15 -15 -14 -14 -14
-23 -23 -22 -22 -22 -22 -21 -21 -21 -20 -20 -20 -19 -19 -17 -17 -17 -17 -17 -17 -18 -18 -17 -16 -16 -16 -17 -17 -17 -17 -17 -17 -17 -16 -16 -16 -15 -15 -15 -15 -15 -15 -14 -15 -15 -15 -15 -15 -15 -15 -15 -15 -15 -15
-23 -23 -23 -22 -22 -22 -22 -22 -21 -21 -21 -21 -21 -20 -20 -20 -20 -19 -18 -17 -18 -18 -18 -17 -17 -18 -17 -17 -18 -18 -18 -18 -18 -17 -17 -16 -16 -16 -16 -15 -15 -15 -15 -15 -15 -15 -15 -15 -16 -16 -16 -15 -16 -16
-22 -23 -23 -23 -22 -22 -22 -22 -22 -21 -21 -21 -20 -20 -20 -20 -20 -20 -19 -18 -20 -19 -20 -19 -18 -19 -19 -19 -19 -18 -18 -18 -18 -18 -17 -17 -17 -17 -17 -17 -16 -15 -15 -15 -15 -15 -16 -16 -16 -16 -16 -16 -16 -16
-23 -23 -23 -23 -23 -22 -22 -22 -22 -22 -21 -21 -21 -21 -20 -21 -21 -22 -22 -21 -21 -22 -22 -21 -20 -20 -20 -19 -19 -19 -19 -18 -18 -18 -18 -17 -17 -17 -18 -18 -18 -16 -16 -16 -17 -17 -16 -16 -16 -16 -16 -17 -17 -17
-25 -24 -24 -23 -23 -23 -22 -22 -22 -22 -22 -21 -21 -21 -21 -21 -22 -25 -25 -24 -24 -25 -25 -24 -22 -21 -20 -20 -20 -20 -19 -19 -19 -18 -18 -18 -19 -19 -19 -19 -18 -17 -17 -17 -18 -18 -17 -17 -17 -17 -17 -18 -18 -18
-25 -24 -24 -23 -22 -22 -22 -21 -21 -21 -21 -22 -23 -24 -23 -24 -26 -27 -27 -26 -26 -27 -27 -27 -26 -25 -24 -23 -22 -21 -20 -19 -19 -20 -20 -19 -20 -20 -20 -20 -19 -19 -19 -19 -19 -19 -19 -19 -18 -18 -18 -19 -19 -18
-23 -23 -22 -22 -21 -21 -21 -21 -21 -23 -24 -25 -25 -26 -27 -28 -28 -29 -29 -28 -28 -28 -28 -27 -26 -26 -26 -25 -24 -24 -23 -22 -21 -21 -21 -22 -22 -21 -21 -20 -20 -20 -20 -21 -21 -21 -20 -20 -20 -20 -20 -20 -20 -19
-23 -23 -22 -22 -22 -22 -22 -22 -25 -27 -27 -27 -27 -27 -29 -28 -28 -29 -29 -28 -28 -28 -28 -28 -27 -27 -27 -27 -26 -25 -24 -24 -24 -23 -23 -22 -22 -22 -22 -22 -22 -22 -22 -22 -21 -21 -21 -21 -21 -21 -21 -21 -21 -20
-24 -23 -22 -22 -23 -23 -24 -26 -26 -27 -28 -28 -28 -29 -29 -29 -29 -29 -29 -29 -28 -28 -28 -28 -27 -27 -28 -27 -27 -26 -26 -26 -25 -25 -24 -23 -22 -21 -21 -22 -23 -22 -21 -22 -22 -22 -22 -21 -21 -21 -21 -21 -21 -21
-24 -23 -23 -24 -24 -24 -27 -28 -28 -28 -28 -28 -29 -29 -29 -29 -29 -29 -29 -29 -28 -29 -29 -28 -28 -28 -29 -28 -28 -28 -28 -28 -28 -27 -26 -25 -24 -24 -26 -26 -26 -25 -25 -24 -24 -24 -24 -23 -23 -23 -23 -22 -22 -22
-24 -24 -24 -24 -25 -26 -27 -29 -29 -29 -29 -29 -28 -29 -29 -29 -29 -29 -29 -29 -29 -29 -29 -29 -29 -28 -28 -29 -29 -28 -28 -28 -28 -28 -28 -28 -27 -27 -27 -27 -27 -26 -26 -26 -26 -26 -25 -25 -25 -25 -25 -25 -25 -25
-25 -25 -25 -26 -26 -26 -27 -28 -29 -29 -29 -29 -29 -29 -29 -29 -29 -29 -29 -29 -29 -29 -28 -28 -28 -28 -28 -28 -28 -28 -28 -28 -28 -28 -27 -27 -28 -27 -27 -27 -26 -26 -26 -26 -26 -25 -25 -26 -26 -27 -27 -27 -27 -26
-26 -26 -25 -26 -28 -28 -28 -28 -28 -28 -29 -29 -29 -29 -29 -29 -29 -29 -29 -29 -29 -29 -28 -29 -29 -28 -28 -28 -28 -28 -28 -28 -28 -27 -28 -28 -28 -28 -28 -27 -27 -27 -27 -27 -27 -28 -28 -28 -28 -28 -27 -27 -27 -27
-27 -27 -27 -27 -27 -28 -28 -29 -29 -29 -29 -29 -29 -29 -29 -29 -29 -29 -29 -29 -29 -29 -29 -28 -28 -28 -28 -28 -28 -28 -28 -28 -27 -28 -28 -27 -27 -27 -27 -27 -27 -27 -27 -27 -27 -28 -28 -27 -27 -27 -27 -27 -27 -27
-27 -27 -27 -28 -28 -28 -28 -28 -28 -29 -29 -29 -29 -29 -29 -29 -29 -29 -29 -29 -29 -28 -28 -28 -28 -28 -28 -28 -28 -28 -28 -28 -28 -28 -27 -27 -27 -27 -27 -27 -27 -27 -27 -28 -28 -27 -27 -27 -27 -27 -27 -27 -28 -28
-26 -27 -27 -28 -28 -28 -28 -29 -29 -29 -28 -29 -29 -29 -29 -29 -29 -29 -29 -29 -28 -28 -28 -28 -28 -28 -28 -28 -28 -28 -28 -28 -27 -27 -27 -27 -27 -27 -27 -27 -27 -28 -28 -28 -28 -28 -28 -28 -29 -29 -29 -28 -28 -28
-26 -26 -27 -28 -28 -28 -28 -28 -28 -28 -28 -29 -29 -29 -29 -29 -29 -28 -28 -28 -28 -28 -28 -28 -28 -28 -28 -28 -28 -27 -27 -27 -27 -27 -27 -28 -28 -28 -28 -28 -28 -28 -28 -28 -28 -28 -28 -28 -28 -28 -28 -28 -28 -28
-26 -26 -26 -26 -27 -28 -28 -28 -28 -28 -28 -28 -28 -28 -28 -28 -28 -28 -28 -27 -27 -27 -27 -27 -27 -27 -27 -27 -27 -27 -27 -28 -28 -28 -28 -28 -28 -28 -28 -28 -28 -28 -28 -28 -28 -28 -28 -28 -28 -28 -28 -28 -28 -29
-25 -25 -26 -26 -26 -26 -26 -28 -28 -28 -28 -28 -28 -27 -27 -27 -27 -27 -27 -27 -27 -27 -27 -27 -27 -27 -27 -27 -27 -28 -28 -28 -28 -28 -28 -28 -28 -28 -28 -28 -28 -28 -28 -28 -28 -28 -28 -28 -29 -29 -29 -29 -29 -29
-26 -25 -25 -25 -26 -26 -26 -26 -26 -27 -27 -27 -27 -27 -27 -27 -27 -27 -27 -27 -27 -27 -27 -27 -27 -28 -28 -28 -28 -28 -28 -28 -28 -27 -27 -27 -28 -27 -28 -28 -28 -28 -28 -28 -29 -29 -29 -29 -29 -29 -29 -29 -29 -29
-25 -26 -26 -25 -25 -25 -26 -26 -26 -26 -26 -26 -26 -26 -26 -26 -27 -27 -26 -27 -27 -27 -27 -27 -27 -27 -27 -27 -27 -27 -27 -27 -27 -27 -27 -27 -27 -28 -28 -28 -28 -28 -29 -29 -29 -29 -29 -29 -29 -29 -29 -30 -30 -30
-25 -25 -26 -26 -25 -25 -26 -25 -26 -26 -26 -26 -26 -25 -25 -25 -25 -26 -26 -26 -26 -26 -26 -26 -26 -27 -26 -27 -27 -27 -27 -27 -27 -27 -27 -28 -28 -28 -28 -28 -28 -28 -28 -29 -29 -29 -29 -29 -30 -30 -30 -30 -30 -30
-25 -25 -25 -25 -25 -25 -26 -25 -25 -26 -26 -25 -25 -25 -25 -25 -25 -25 -25 -25 -25 -25 -26 -26 -26 -26 -26 -27 -27 -27 -27 -27 -27 -27 -28 -28 -28 -28 -28 -28 -28 -28 -29 -29 -29 -29 -30 -30 -30 -30 -30 -30 -30 -30
-25 -26 -25 -25 -25 -26 -26 -26 -25 -25 -26 -25 -25 -25 -25 -25 -25 -25 -25 -25 -25 -26 -26 -26 -26 -26 -26 -27 -27 -27 -27 -27 -27 -27 -27 -27 -28 -28 -28 -28 -28 -29 -29 -29 -29 -30 -30 -30 -30 -30 -30 -30 -30 -30
-26 -25 -25 -25 -25 -26 -26 -26 -26 -26 -26 -25 -25 -25 -25 -25 -25 -26 -25 -25 -26 -26 -26 -26 -26 -26 -26 -27 -27 -27 -27 -27 -27 -27 -27 -27 -28 -28 -28 -28 -29 -29 -29 -30 -30 -30 -30 -30 -30 -30 -30 -31 -31 -30
-26 -25 -25 -25 -25 -26 -26 -26 -26 -26 -26 -25 -25 -26 -25 -25 -25 -26 -26 -25 -26 -26 -26 -26 -26 -26 -26 -26 -26 -26 -27 -27 -27 -27 -27 -27 -28 -28 -28 -29 -29 -29 -30 -30 -30 -30 -30 -30 -30 -30 -31 -31 -30 -30
-26 -26 -25 -25 -25 -26 -26 -26 -26 -26 -26 -26 -26 -26 -26 -26 -26 -26 -26 -26 -26 -26 -26 -26 -26 -26 -26 -26 -26 -26 -26 -27 -27 -27 -27 -28 -28 -28 -29 -29 -29 -29 -30 -30 -30 -30 -30 -30 -30 -31 -31 -30 -30 -30
-26 -26 -26 -26 -26 -26 -26 -26 -26 -26 -26 -26 -26 -26 -26 -26 -26 -26 -26 -26 -26 -26 -26 -26 -26 -26 -26 -26 -26 -26 -26 -26 -27 -27 -27 -28 -28 -28 -29 -29 -29 -30 -30 -30 -30 -30 -30 -30 -31 -31 -31 -30 -30 -30
-27 -27 -27 -26 -26 -26 -26 -26 -26 -26 -26 -26 -26 -26 -26 -26 -26 -26 -26 -26 -26 -26 -26 -26 -26 -26 -26 -26 -26 -26 -26 -26 -27 -27 -27 -28 -28 -28 -29 -29 -29 -30 -30 -30 -30 -30 -30 -30 -30 -30 -30 -30 -30 -31
-27 -27 -27 -27 -26 -26 -26 -26 -26 -26 -26 -26 -26 -26 -26 -26 -26 -26 -26 -26 -26 -26 -26 -26 -26 -26 -26 -26 -26 -26 -27 -27 -27 -27 -28 -28 -28 -28 -29 -29 -29 -30 -30 -30 -30 -30 -30 -30 -30 -31 -30 -30 -31 -32
-29 -28 -28 -27 -27 -27 -26 -26 -26 -26 -26 -26 -26 -26 -26 -26 -26 -26 -26 -26 -27 -26 -26 -26 -26 -26 -27 -26 -26 -27 -27 -27 -27 -28 -28 -28 -28 -29 -29 -29 -30 -30 -30 -30 -30 -30 -30 -30 -31 -31 -30 -30 -31 -33
-29 -28 -28 -28 -27 -27 -27 -26 -26 -26 -26 -26 -26 -26 -26 -26 -26 -26 -26 -26 -26 -26 -26 -26 -27 -27 -27 -27 -27 -27 -27 -27 -28 -28 -28 -28 -28 -29 -29 -30 -30 -30 -30 -30 -30 -30 -31 -31 -31 -31 -30 -31 -32 -33
Height
5363 5366 5369 5372 5374 5378 5383 5393 5400 5406 5414 5422 5431 5439 5445 5451 5454 5462 5474 5482 5488 5494 5503 5512 5521 5528 5533 5538 5546 5553 5562 5564 5572 5571 5573 5571 5573 5578 5583 5591 5592 5593 5594 5593 5595 5595 5595 5611 5605 5603 5607 5601 5602 5601
5361 5360 5363 5367 5372 5376 5378 5381 5388 5393 5401 5406 5412 5418 5423 5428 5433 5437 5452 5465 5468 5473 5484 5492 5501 5510 5515 5519 5529 5532 5537 5547 5552 5555 5554 5554 5556 5559 5566 5567 5573 5571 5577 5578 5577 5576 5583 5583 5583 5585 5586 5586 5585 5584
5350 5354 5357 5359 5362 5365 5369 5373 5377 5385 5391 5396 5403 5406 5408 5410 5412 5415 5428 5442 5449 5454 5462 5472 5487 5487 5493 5501 5505 5513 5518 5526 5532 5534 5536 5537 5538 5540 5544 5547 5556 5556 5560 5558 5555 5561 5565 5562 5564 5565 5566 5566 5566 5567
5343 5345 5346 5347 5351 5354 5359 5364 5371 5374 5379 5385 5387 5388 5391 5395 5396 5396 5406 5422 5428 5433 5437 5448 5459 5466 5472 5478 5486 5491 5500 5504 5511 5514 5515 5515 5517 5519 5523 5527 5531 5540 5542 5544 5538 5543 5546 5547 5546 5544 5546 5547 5548 5548
5333 5337 5339 5343 5346 5350 5352 5354 5357 5364 5366 5365 5367 5371 5372 5375 5372 5371 5381 5397 5405 5410 5411 5428 5437 5442 5449 5455 5466 5473 5476 5480 5488 5491 5491 5493 5495 5499 5501 5503 5510 5521 5525 5521 5519 5524 5521 5528 5528 5526 5528 5531 5529 5528
5325 5330 5334 5337 5340 5342 5345 5348 5350 5350 5350 5352 5352 5352 5357 5355 5353 5351 5362 5373 5384 5389 5398 5408 5414 5422 5425 5432 5442 5449 5455 5455 5461 5467 5471 5470 5475 5480 5477 5481 5496 5502 5501 5500 5498 5498 5501 5505 5509 5509 5511 5512 5512 5510
5325 5327 5329 5332 5335 5336 5336 5335 5333 5332 5332 5333 5335 5337 5336 5335 5339 5345 5353 5369 5377 5383 5388 5391 5398 5403 5410 5412 5416 5425 5428 5432 5442 5443 5446 5452 5458 5460 5457 5457 5486 5483 5481 5478 5475 5477 5482 5485 5489 5490 5491 5492 5491 5492
5326 5326 5326 5327 5327 5326 5324 5321 5317 5313 5315 5319 5322 5323 5325 5327 5335 5347 5355 5364 5371 5373 5376 5378 5389 5397 5397 5398 5403 5407 5411 5411 5417 5423 5427 5433 5437 5436 5431 5453 5463 5465 5461 5453 5454 5454 5462 5470 5472 5474 5472 5473 5472 5471
5325 5322 5321 5320 5318 5315 5311 5305 5301 5302 5305 5308 5312 5319 5325 5333 5342 5349 5355 5362 5367 5371 5371 5378 5384 5386 5384 5385 5388 5393 5393 5398 5401 5407 5411 5413 5414 5419 5433 5436 5441 5441 5434 5433 5437 5440 5441 5448 5452 5454 5453 5452 5453 5451
5324 5322 5318 5314 5309 5305 5300 5298 5299 5300 5304 5308 5314 5320 5326 5333 5341 5349 5355 5358 5361 5364 5368 5373 5375 5377 5376 5378 5380 5382 5383 5386 5388 5393 5393 5395 5401 5412 5413 5409 5409 5413 5415 5416 5421 5427 5424 5423 5427 5429 5432 5433 5433 5433
5325 5321 5317 5312 5308 5303 5299 5300 5302 5306 5308 5314 5319 5325 5330 5335 5340 5346 5350 5354 5357 5361 5364 5368 5370 5371 5371 5371 5371 5371 5373 5377 5379 5383 5384 5386 5394 5399 5393 5391 5393 5395 5396 5399 5401 5403 5404 5403 5402 5405 5408 5409 5409 5410
5325 5321 5317 5314 5311 5308 5304 5304 5308 5312 5316 5321 5324 5329 5333 5336 5340 5344 5348 5351 5355 5358 5361 5363 5364 5365 5367 5368 5369 5370 5373 5374 5375 5378 5378 5380 5388 5383 5380 5379 5381 5382 5384 5385 5385 5387 5388 5386 5385 5387 5389 5390 5391 5393
5326 5323 5319 5316 5314 5312 5310 5310 5312 5314 5319 5323 5327 5330 5334 5337 5340 5343 5348 5351 5354 5356 5357 5359 5360 5362 5364 5365 5366 5367 5368 5369 5371 5372 5374 5376 5370 5371 5371 5370 5371 5370 5370 5371 5371 5373 5373 5371 5372 5375 5376 5377 5378 5380
5325 5324 5322 5319 5318 5318 5317 5318 5319 5320 5322 5325 5329 5332 5334 5337 5340 5343 5345 5348 5350 5352 5354 5356 5357 5359 5361 5362 5363 5364 5364 5364 5365 5367 5367 5363 5362 5359 5359 5358 5358 5359 5359 5358 5358 5358 5360 5361 5363 5365 5366 5367 5367 5367
5325 5325 5324 5322 5321 5320 5320 5321 5322 5323 5325 5328 5331 5333 5335 5338 5340 5342 5344 5346 5348 5350 5352 5354 5355 5356 5356 5357 5358 5358 5358 5358 5359 5360 5356 5354 5354 5353 5352 5352 5352 5352 5351 5352 5352 5352 5354 5355 5356 5356 5357 5357 5357 5357
5324 5324 5324 5324 5324 5323 5323 5323 5324 5325 5326 5328 5330 5332 5334 5336 5338 5340 5341 5343 5345 5346 5347 5348 5349 5350 5351 5350 5351 5351 5351 5353 5352 5350 5349 5349 5348 5347 5346 5346 5346 5345 5346 5346 5345 5346 5347 5347 5347 5348 5348 5348 5348 5347
5322 5322 5323 5323 5323 5324 5324 5325 5325 5326 5326 5328 5328 5329 5331 5333 5334 5336 5337 5339 5339 5341 5341 5341 5343 5344 5344 5344 5346 5346 5346 5346 5345 5345 5344 5343 5343 5343 5342 5342 5342 5341 5342 5342 5342 5342 5342 5342 5342 5342 5342 5341 5340 5339
5320 5319 5318 5319 5320 5321 5321 5322 5323 5325 5326 5326 5327 5329 5329 5330 5331 5332 5333 5334 5336 5336 5336 5336 5337 5338 5339 5341 5342 5341 5342 5342 5341 5340 5340 5340 5340 5340 5339 5339 5339 5339 5339 5339 5339 5339 5338 5337 5337 5336 5335 5334 5333 5331
5319 5318 5316 5316 5316 5316 5318 5319 5320 5321 5322 5322 5323 5324 5325 5326 5327 5329 5330 5331 5332 5333 5333 5333 5332 5333 5335 5336 5337 5338 5338 5338 5338 5337 5337 5337 5337 5337 5337 5336 5336 5336 5336 5335 5335 5334 5333 5332 5331 5330 5328 5326 5324 5323
5317 5316 5316 5315 5314 5314 5313 5314 5314 5315 5317 5317 5317 5317 5318 5321 5323 5325 5327 5328 5330 5330 5331 5331 5331 5332 5333 5334 5334 5335 5335 5335 5335 5335 5335 5335 5335 5335 5335 5335 5334 5334 5333 5332 5331 5330 5328 5327 5325 5323 5321 5318 5315 5312
5313 5314 5313 5313 5313 5313 5314 5314 5314 5314 5313 5312 5310 5308 5308 5313 5317 5320 5322 5324 5326 5327 5327 5326 5327 5328 5329 5330 5331 5332 5332 5333 5333 5333 5333 5333 5333 5333 5333 5332 5332 5331 5329 5328 5326 5325 5323 5321 5319 5316 5313 5310 5306 5302
5309 5310 5310 5310 5310 5311 5312 5312 5312 5311 5311 5309 5307 5303 5303 5305 5310 5315 5318 5320 5322 5321 5321 5322 5323 5324 5326 5327 5329 5330 5330 5331 5332 5332 5331 5331 5331 5330 5329 5328 5327 5326 5324 5323 5321 5319 5317 5315 5312 5309 5305 5300 5296 5290
5303 5305 5306 5307 5308 5309 5311 5310 5310 5310 5310 5309 5309 5307 5307 5307 5309 5312 5314 5316 5317 5319 5321 5322 5323 5324 5326 5327 5327 5328 5329 5329 5329 5329 5329 5328 5327 5326 5325 5324 5323 5321 5320 5318 5316 5314 5311 5308 5304 5300 5295 5290 5284 5278
5297 5299 5300 5301 5304 5306 5306 5307 5308 5309 5309 5309 5310 5310 5310 5311 5312 5313 5314 5315 5317 5319 5320 5322 5323 5323 5324 5325 5325 5326 5326 5326 5326 5326 5325 5324 5323 5322 5321 5320 5318 5317 5315 5313 5311 5308 5304 5300 5296 5291 5285 5280 5274 5267
5291 5293 5295 5296 5299 5301 5302 5303 5305 5306 5307 5308 5309 5310 5310 5311 5312 5313 5314 5315 5317 5318 5319 5320 5321 5321 5322 5323 5323 5323 5323 5324 5323 5323 5322 5321 5320 5319 5317 5316 5315 5313 5311 5308 5304 5301 5297 5293 5288 5282 5276 5269 5263 5255
5283 5284 5288 5291 5294 5296 5298 5299 5300 5302 5303 5304 5306 5307 5308 5309 5311 5313 5312 5314 5315 5316 5317 5318 5319 5319 5320 5320 5321 5321 5321 5321 5320 5320 5319 5318 5317 5316 5315 5313 5311 5308 5305 5302 5298 5294 5290 5285 5279 5273 5266 5259 5252 5245
5272 5278 5282 5284 5287 5290 5291 5293 5295 5296 5298 5300 5302 5303 5305 5307 5309 5310 5310 5312 5313 5314 5315 5315 5316 5316 5317 5317 5317 5317 5318 5317 5317 5317 5316 5315 5314 5313 5311 5308 5305 5303 5299 5296 5292 5288 5283 5277 5271 5264 5257 5250 5243 5236
5264 5269 5273 5276 5279 5282 5284 5286 5289 5291 5293 5296 5298 5298 5301 5303 5305 5305 5306 5308 5310 5311 5311 5312 5312 5313 5313 5314 5314 5314 5314 5314 5314 5314 5313 5312 5310 5308 5306 5303 5300 5297 5294 5290 5286 5281 5275 5269 5262 5255 5248 5241 5235 5227
5254 5259 5263 5266 5269 5272 5276 5279 5281 5284 5286 5288 5291 5293 5295 5297 5299 5301 5303 5304 5305 5306 5307 5308 5308 5309 5310 5310 5311 5311 5311 5311 5311 5310 5309 5307 5306 5304 5301 5298 5295 5292 5288 5284 5279 5274 5268 5261 5254 5247 5240 5233 5226 5218
5241 5246 5251 5255 5259 5263 5267 5270 5273 5276 5279 5282 5284 5287 5289 5292 5294 5296 5298 5299 5301 5302 5303 5304 5305 5305 5306 5307 5307 5307 5307 5307 5306 5306 5304 5303 5301 5299 5296 5293 5290 5286 5282 5278 5273 5268 5261 5253 5246 5240 5233 5226 5218 5209
5227 5233 5239 5244 5249 5253 5256 5260 5264 5268 5272 5275 5277 5280 5283 5286 5288 5290 5292 5294 5295 5297 5298 5299 5300 5301 5301 5302 5302 5303 5303 5303 5302 5302 5300 5299 5297 5295 5292 5288 5285 5281 5277 5272 5267 5261 5253 5246 5240 5233 5226 5218 5210 5202
5213 5220 5226 5232 5238 5242 5246 5250 5255 5260 5264 5267 5270 5273 5276 5279 5281 5284 5286 5287 5289 5291 5293 5295 5295 5296 5296 5296 5297 5298 5298 5298 5298 5297 5296 5294 5292 5290 5287 5283 5279 5275 5271 5266 5261 5254 5247 5240 5234 5228 5221 5213 5204 5197
5199 5205 5212 5218 5225 5230 5236 5241 5246 5251 5255 5259 5263 5266 5269 5272 5275 5277 5278 5280 5282 5284 5286 5288 5289 5290 5291 5291 5292 5293 5294 5293 5293 5292 5291 5289 5287 5284 5282 5278 5274 5270 5266 5261 5254 5248 5242 5236 5230 5223 5216 5207 5199 5192
Wind_Speed
6 10 12 16 20 26 35 47 53 55 58 63 65 66 68 70 72 72 72 75 75 75 74 72 74 73 73 74 71 68 69 70 60 64 64 74 69 70 63 62 68 72 72 76 74 67 70 64 59 65 60 62 59 57
3 10 15 15 16 19 24 32 38 44 49 57 64 69 73 75 78 80 79 76 76 77 78 79 75 72 78 77 72 70 71 70 65 70 73 76 80 86 81 79 74 77 76 77 80 80 73 69 67 66 64 62 62 62
13 9 11 15 18 20 24 28 27 26 30 36 44 52 63 71 77 84 85 82 83 82 81 81 78 78 79 81 79 75 72 70 72 77 78 75 68 75 83 85 80 77 78 83 82 83 79 75 74 71 70 68 66 62
24 20 15 14 15 17 19 22 27 28 30 31 32 36 40 55 67 80 86 88 87 85 89 85 84 83 80 79 78 78 78 78 79 77 86 85 84 84 82 78 80 80 80 83 84 81 79 74 71 69 69 68 67 65
29 25 24 23 22 22 22 24 27 32 33 34 37 40 39 44 51 71 84 83 81 86 90 90 91 89 88 86 82 83 84 83 84 86 90 88 87 82 77 78 79 81 82 84 82 79 79 76 74 74 70 66 63 63
19 22 22 22 22 26 28 32 37 39 41 43 45 44 43 41 42 56 70 79 73 71 73 79 87 96 95 93 92 91 91 93 95 93 93 89 84 80 80 78 77 79 81 79 74 76 76 75 73 71 69 64 63 63
4 8 16 21 25 28 34 40 45 50 53 49 39 37 36 32 31 42 51 58 58 55 54 53 59 65 78 86 90 93 96 97 90 84 89 92 87 79 77 78 75 72 72 76 78 75 73 69 68 68 69 67 67 69
6 7 9 12 19 27 34 36 46 47 39 33 31 23 18 20 18 22 23 22 26 34 39 43 42 41 46 55 60 66 78 87 94 91 87 80 76 77 80 82 75 71 70 70 71 70 70 66 62 64 66 68 70 71
15 18 19 18 18 20 22 24 15 17 22 22 23 22 25 30 33 30 32 27 28 32 30 27 24 25 28 31 35 39 46 51 63 72 76 77 78 72 62 61 65 70 72 73 69 68 67 68 69 71 71 70 70 72
14 17 16 16 15 15 11 5 8 16 21 19 23 25 24 27 29 29 34 34 29 30 23 16 16 18 22 28 32 34 34 35 38 42 50 63 74 77 72 67 65 72 74 66 66 69 72 72 72 73 73 72 69 68
12 14 16 17 14 12 7 10 23 33 26 20 24 22 20 23 27 31 35 34 33 26 16 18 20 18 15 21 25 29 32 28 33 35 38 41 45 40 38 40 43 46 50 53 55 55 55 56 56 57 58 60 61 64
10 13 15 17 15 16 20 17 18 24 22 19 20 16 19 26 29 30 30 28 28 21 17 18 22 25 16 12 11 14 12 16 23 26 29 30 23 27 31 35 36 39 40 41 42 42 44 48 49 49 49 50 50 48
8 9 12 14 16 19 20 20 19 24 25 26 22 19 20 24 25 24 23 20 18 17 21 17 14 20 15 16 14 14 19 17 17 21 21 22 29 33 34 36 37 37 34 35 39 40 40 40 38 35 36 35 35 39
4 6 8 11 16 16 17 16 16 18 17 20 20 18 20 19 21 18 13 12 13 14 18 18 16 12 12 14 16 14 18 20 23 24 24 31 31 31 28 24 18 18 19 20 21 20 21 22 26 31 35 38 41 44
1 0 5 6 7 13 14 14 13 11 12 13 15 16 13 14 18 12 12 9 10 14 14 18 20 21 18 19 21 23 26 29 28 25 26 21 18 17 15 15 20 22 21 20 20 19 22 26 29 30 31 32 32 33
5 5 3 3 4 6 6 8 10 12 12 12 12 12 11 11 11 15 17 17 19 21 22 22 22 23 24 26 24 22 23 24 26 25 24 18 17 17 17 17 18 18 17 20 24 23 24 25 26 27 28 28 26 25
6 4 8 8 6 6 6 6 6 6 10 13 14 16 17 19 19 17 20 21 23 24 24 24 23 21 19 21 21 22 24 25 24 15 10 10 10 11 13 16 15 16 17 19 19 18 16 15 15 17 20 22 24 24
7 7 6 8 10 10 10 8 8 9 11 14 13 14 16 16 19 18 19 18 16 15 16 20 25 24 24 23 23 22 15 13 14 14 12 14 15 14 13 12 10 9 10 11 12 13 14 14 16 17 19 21 23 26
8 7 6 7 9 11 12 13 14 13 13 14 17 19 19 19 18 16 16 15 11 8 6 5 7 14 19 20 17 15 16 17 16 14 11 10 9 8 7 7 7 7 7 9 11 12 14 16 19 21 24 27 29 30
8 7 6 6 6 7 7 8 11 11 13 19 23 25 23 22 22 21 20 17 14 11 11 12 13 13 15 16 16 17 17 13 8 6 5 5 5 5 5 6 7 9 11 13 15 17 19 21 23 24 25 26 28 30
12 9 8 7 6 5 4 5 4 4 5 8 11 17 26 32 28 25 22 19 17 16 17 20 21 20 18 18 19 11 8 7 6 5 4 5 6 7 9 10 12 14 15 17 18 19 20 20 22 24 27 29 32 36
16 14 12 10 9 6 6 4 4 3 3 5 8 5 5 18 29 29 24 19 18 19 13 8 6 8 9 10 9 6 5 5 5 6 8 10 11 12 13 14 15 15 16 16 17 18 21 23 26 29 31 33 37 40
18 18 16 15 12 9 7 8 6 4 2 1 4 7 7 8 10 13 13 13 10 8 8 8 7 7 6 5 5 6 7 8 9 11 11 12 13 13 14 14 14 14 15 17 20 22 24 26 29 31 34 37 39 41
22 21 20 20 15 11 11 10 9 8 6 5 5 5 7 9 10 10 10 10 9 9 9 8 7 7 7 7 9 10 10 10 12 13 13 13 13 13 13 13 15 16 18 20 22 24 26 29 31 35 37 39 41 45
25 25 23 20 18 15 15 14 12 11 11 11 9 8 8 8 8 8 8 7 7 7 9 9 9 9 9 10 11 12 13 13 13 12 12 12 12 13 14 15 17 19 21 22 24 26 28 31 34 37 39 41 45 42
27 28 25 21 19 20 19 18 17 15 15 15 13 11 11 10 10 10 12 8 9 11 10 9 10 11 11 11 12 13 12 10 10 10 11 12 13 15 16 18 19 20 22 24 26 28 30 33 37 39 42 44 42 39
32 28 24 23 22 22 22 23 22 20 19 18 17 18 16 13 12 14 16 12 12 13 13 12 12 12 12 11 10 10 9 8 8 9 11 12 13 15 17 18 20 22 24 25 28 30 32 36 39 42 43 41 39 40
35 30 27 27 26 25 25 25 25 23 21 19 19 19 19 15 16 17 17 15 12 13 13 12 12 12 11 10 8 8 7 7 7 9 10 13 14 16 18 19 21 23 25 27 29 31 35 38 41 42 40 38 40 44
38 33 30 31 30 28 28 27 27 26 24 22 20 20 19 18 17 16 17 15 14 13 13 13 13 12 12 10 9 9 8 8 9 10 12 13 15 17 19 20 23 24 27 29 30 33 37 40 40 39 38 39 43 47
40 38 35 35 34 32 31 31 30 29 28 25 24 22 20 18 16 15 16 15 13 12 12 12 12 12 12 12 11 11 10 9 10 12 13 14 16 18 20 22 24 26 28 29 30 34 39 40 38 37 39 42 46 45
43 41 39 38 37 36 34 34 33 32 29 27 27 25 23 22 20 19 18 17 16 14 13 12 11 12 11 11 12 11 10 11 11 12 14 15 16 19 21 23 25 27 28 28 32 38 40 39 37 38 41 45 46 40
43 42 41 40 39 38 37 36 35 33 32 30 28 26 25 24 23 23 23 22 21 19 17 14 12 11 13 13 12 11 10 10 11 12 14 15 17 19 21 23 26 27 28 30 35 40 39 37 36 39 42 45 42 36
45 47 46 45 42 41 40 38 36 34 33 31 30 28 26 25 24 24 24 25 25 23 20 17 15 14 14 14 13 11 11 11 11 12 14 16 18 20 22 24 26 27 29 33 37 38 36 35 36 39 43 43 39 32
Wind_Direction
196 195 198 207 219 218 215 219 222 226 234 238 238 236 238 240 240 241 243 248 248 247 249 251 256 259 261 262 263 264 264 262 258 254 251 258 262 258 257 259 264 270 272 276 275 269 268 277 272 269 276 271 274 273
232 216 216 216 211 211 218 219 225 228 230 232 231 231 233 238 238 239 239 241 239 240 243 246 247 249 247 252 252 253 253 258 251 252 254 261 260 260 260 261 265 263 269 272 274 276 278 273 272 273 270 269 271 272
268 248 230 226 219 219 224 228 232 234 237 239 241 243 244 242 242 238 237 237 235 238 240 242 243 240 241 245 247 245 246 244 244 246 250 254 253 254 254 261 260 260 265 269 270 271 271 269 272 272 272 271 273 275
247 247 248 244 242 239 241 240 240 245 251 251 253 252 254 247 248 243 241 235 231 234 234 236 237 237 238 239 241 242 243 245 241 239 247 249 249 255 258 257 255 257 260 262 265 266 266 268 269 270 271 273 274 276
246 244 244 245 248 252 257 258 259 260 262 265 269 269 268 265 255 240 236 236 233 234 236 232 231 236 236 236 236 239 242 243 245 245 246 249 251 253 257 260 259 255 257 259 263 264 263 265 268 271 272 272 276 278
244 250 252 260 262 266 270 271 270 273 274 274 272 271 267 263 254 237 234 232 236 238 241 238 237 235 233 235 234 236 239 242 244 242 245 249 252 254 256 252 256 261 263 263 262 262 264 265 266 268 271 275 279 279
327 286 273 275 269 266 269 272 273 272 271 269 260 254 258 251 234 223 233 238 242 249 250 254 252 247 244 248 244 239 238 239 243 244 244 248 248 248 248 249 257 255 254 258 262 264 265 267 268 270 273 277 276 277
347 339 322 292 275 272 278 279 275 266 252 239 234 227 206 193 191 214 227 228 224 229 233 241 251 257 261 260 261 263 256 248 245 248 244 244 250 254 256 257 258 259 259 257 262 265 266 267 267 268 271 273 276 279
4 347 331 313 292 288 288 278 249 212 205 191 189 180 184 182 203 211 210 217 221 225 240 245 249 245 249 253 255 260 265 265 264 262 262 261 258 255 255 251 256 262 264 267 269 271 273 272 271 271 273 276 278 279
1 348 346 347 357 325 293 208 163 165 159 165 166 166 178 190 198 197 201 216 233 234 231 248 250 270 253 244 242 244 244 249 259 258 260 265 266 268 273 273 271 271 274 273 270 267 270 274 275 276 276 277 277 278
10 9 8 16 14 28 80 116 138 145 151 163 158 169 179 184 184 197 205 214 222 231 246 240 254 258 250 246 240 241 225 232 242 247 260 262 265 267 259 259 261 263 266 269 270 270 269 269 269 268 268 267 267 267
14 28 33 31 59 70 90 122 154 157 164 163 170 169 181 178 186 201 209 218 219 226 233 253 249 232 229 207 204 215 245 261 262 263 265 270 273 266 265 267 269 268 268 269 270 269 265 262 261 262 263 264 264 263
9 31 62 63 64 77 83 102 127 149 157 170 179 190 195 196 201 200 207 219 230 246 258 231 247 231 233 237 237 243 244 260 275 277 286 284 275 282 281 281 284 285 283 279 273 270 264 262 259 254 257 259 255 252
22 21 43 86 97 92 97 106 111 122 146 170 181 196 191 197 199 208 237 228 237 239 235 252 260 226 243 240 240 252 263 269 271 283 291 287 289 287 287 281 278 283 290 285 275 270 274 271 260 256 256 254 253 253
194 43 42 41 100 127 131 131 135 141 146 155 171 195 207 216 216 230 197 193 219 239 248 243 248 262 266 266 264 271 279 281 290 294 281 286 280 276 279 277 283 280 279 274 270 269 264 260 256 251 251 253 256 261
240 209 185 136 134 110 116 143 160 165 175 180 180 186 195 204 212 219 234 247 242 246 263 263 257 259 264 268 272 276 276 282 278 276 276 281 280 283 279 277 276 269 265 256 254 253 254 254 253 254 257 259 262 266
331 238 216 211 193 184 173 167 166 173 190 195 203 212 218 228 234 235 238 234 237 242 243 245 246 249 255 252 258 266 272 276 279 275 265 260 268 272 266 261 257 251 252 250 251 254 259 267 272 272 269 268 268 269
334 314 282 258 236 220 221 224 221 205 206 201 212 215 216 219 220 230 234 240 243 244 253 258 254 248 251 256 262 263 261 262 269 269 265 269 264 258 256 255 255 254 254 256 261 266 268 269 271 273 274 274 275 277
304 316 308 296 285 265 247 239 238 242 239 235 229 228 226 225 231 222 217 211 211 221 246 261 255 243 244 243 242 251 256 272 281 282 275 266 255 249 254 260 265 270 278 282 283 285 286 286 286 285 285 287 289 290
271 285 295 288 283 291 284 272 261 251 247 249 248 241 230 219 215 212 216 219 225 237 251 252 246 246 250 251 253 264 275 276 254 254 255 254 258 263 270 275 284 288 291 291 292 292 292 293 294 296 298 298 298 297
263 260 267 271 270 261 250 241 241 240 257 285 286 253 232 221 218 218 219 225 234 244 254 260 260 260 260 259 267 252 228 244 258 265 269 272 277 282 290 292 292 291 294 296 296 297 299 301 303 304 305 305 304 303
263 257 253 255 260 268 274 269 282 302 326 354 13 13 211 213 215 217 224 233 244 256 259 243 212 197 196 198 202 214 241 254 263 273 280 284 289 294 295 296 299 302 301 300 303 307 308 310 309 307 308 307 309 308
257 258 254 250 249 249 250 258 260 254 262 36 84 92 102 130 157 179 186 186 179 174 172 176 179 182 192 202 220 237 248 261 272 281 287 291 295 298 300 303 308 308 310 312 311 310 309 309 310 311 311 312 313 312
254 251 253 255 248 240 240 246 246 245 236 218 186 157 147 146 154 158 162 166 168 173 180 189 200 215 229 242 254 265 276 280 283 289 292 296 299 304 310 313 314 313 311 308 308 309 311 312 313 314 315 317 316 317
249 250 249 250 247 237 235 240 242 240 240 233 219 208 207 194 192 194 195 198 190 204 211 220 233 245 261 269 273 278 282 284 289 295 299 303 307 311 312 311 309 308 308 309 312 314 315 316 317 318 319 319 321 320
244 247 248 246 244 239 231 235 240 239 238 239 236 233 232 225 219 225 238 229 223 237 254 260 263 264 267 270 272 275 284 292 300 305 309 310 309 308 308 309 310 312 314 316 316 318 319 319 321 321 322 323 323 322
245 245 245 245 241 238 235 231 232 234 235 237 239 240 239 235 232 237 249 250 247 254 259 261 261 263 264 270 278 285 293 302 306 307 308 313 315 314 315 316 319 319 318 319 320 321 322 322 324 324 325 325 325 325
244 243 239 240 238 234 235 234 233 233 235 235 237 243 243 240 239 240 248 254 254 255 259 260 260 264 268 273 279 284 290 298 303 311 317 321 321 321 322 322 323 323 322 322 324 325 325 326 327 328 327 327 327 327
239 238 235 236 237 234 231 233 234 234 233 232 233 237 238 239 242 245 251 257 258 259 260 260 261 264 265 266 268 268 277 291 303 314 321 326 327 326 325 323 323 324 325 327 329 329 329 331 331 330 330 330 329 329
234 233 231 231 233 233 230 232 232 233 233 233 234 236 237 237 235 237 243 248 254 257 262 265 266 266 265 264 262 266 279 292 302 312 317 322 326 326 324 323 324 326 328 330 332 334 335 334 334 333 333 332 331 331
229 229 229 229 229 231 231 232 231 232 233 233 232 233 234 236 236 236 239 242 244 249 256 262 264 263 264 263 265 272 279 287 300 307 312 318 323 324 325 325 325 327 330 330 333 337 337 337 336 335 336 334 334 333
224 225 225 226 226 228 230 232 233 231 231 232 233 232 230 233 236 237 242 247 250 251 254 256 259 259 256 258 262 266 271 281 293 305 311 316 322 325 325 326 327 329 330 332 337 339 339 339 338 338 338 337 337 336
217 218 218 220 222 223 227 229 231 231 229 229 232 233 231 231 233 236 240 244 248 252 256 257 251 252 252 253 258 262 263 272 286 300 310 316 321 324 325 327 329 332 333 336 339 340 340 340 340 342 341 342 343 341